[[{"header":{"parameterUnit":"m.s-1","parameterCategory":1,"la1":30.2992,"la2":30.254,"lo1":-89.0895,"lo2":-89.0443,"dy":0.0025,"dx":0.0025,"nx":19,"ny":19,"refTime":"2026-05-24T21:00:00:Z","depth":0,"parameterNumber":2,"parameterNumberName":"U-component_of_WINDS"},"data":[0,0,0,-2.0015,-2.0018,-2.0189,-2.0189,-2.0385,-2.0387,0,0,0,0,0,0,0,0,0,0,0,-1.995,-1.995,-2.0015,-2.0018,-2.0188,-2.0189,-2.0385,-2.0387,0,0,0,0,0,0,0,0,0,0,0,-1.9949,-1.995,-1.9951,-2.0019,-2.0188,-2.0189,-2.0384,-2.0264,0,0,0,0,0,0,0,0,0,0,-2.0103,-2.0027,-1.995,-1.9951,-2.002,-2.0188,-2.019,-2.0259,-2.0272,-2.0298,0,-2.0316,0,-2.0354,-2.0398,-2.0399,0,0,0,-2.003,-2.0016,-2.0076,-1.9951,-2.0021,-2.0188,-2.0115,-2.0266,-2.0281,-2.0315,-2.0319,-2.0327,-2.0357,-2.0399,-2.04,-2.0511,-2.0511,0,0,-2.0021,-1.9972,-2.0066,-2.0084,-2.0055,-2.0109,-2.012,-2.0276,-2.0277,-2.032,-2.0332,-2.0361,-2.04,-2.0402,-2.0511,-2.0511,0,0,0,-1.9986,-1.9965,-2.0022,-2.0076,-2.0108,-2.0114,-2.0126,-2.0271,-2.0293,-2.0334,-2.0363,-2.0401,-2.0404,-2.0511,-2.0511,-2.0462,0,0,0,-1.9981,-1.9945,-2.0017,-1.9989,-2.0105,-2.0191,-2.0117,-2.0282,-2.0301,-2.0362,-2.0402,-2.0405,-2.0511,-2.0511,-2.0464,-2.0447,0,0,0,-1.9944,-1.9941,-1.996,-1.9986,-2.0057,-2.019,-2.0221,-2.0287,-2.0318,-2.0399,-2.0406,-2.0511,-2.0511,-2.0465,-2.045,-2.0463,0,0,0,-1.989,-1.9915,-1.9959,-1.9998,-2.0055,-2.0158,-2.0221,-2.03,-2.0363,-2.0402,-2.0511,-2.0511,-2.0466,-2.0451,-2.0463,-2.0464,-2.046,0,0,-1.9894,-1.9914,-1.9941,-1.9985,-2.0066,-2.0136,-2.0212,-2.0316,-2.0369,-2.0461,-2.0464,-2.0463,-2.045,-2.0463,-2.0453,-2.0449,0,0,0,-1.9926,-1.9944,-1.9976,-2.0034,-2.0114,-2.0182,-2.028,-2.0319,-2.0399,-2.0406,-2.0473,-2.0467,-2.0476,-2.0479,-2.0476,-2.0487,-2.051,-2.051,-2.051,-1.9862,-1.9927,-1.9976,-2.0062,-2.0118,-2.0219,-2.0271,-2.0341,-2.0391,-2.0406,-2.0434,-2.042,-2.0421,-2.0419,-2.043,-2.044,-2.044,-2.0439,-2.0439,-1.9874,-1.9911,-1.9977,-2.0048,-2.0118,-2.0179,-2.0279,-2.0312,-2.0381,-2.0404,-2.0416,-2.0435,-2.0412,-2.0426,-2.0436,-2.0437,-2.0437,-2.0438,-2.0438,-1.9839,-1.9868,-1.9915,-2.0006,-2.0069,-2.0157,-2.0219,-2.0281,-2.034,-2.0352,-2.0388,-2.0389,-2.0398,-2.0365,-2.0365,-2.0365,-2.0365,-2.0365,-2.0364,-1.9784,-1.9839,-1.9883,-1.997,-2.0016,-2.0085,-2.0188,-2.0235,-2.0304,-2.0345,-2.0345,-2.0394,-2.0398,-2.0397,-2.0364,-2.0364,-2.0364,-2.0364,-2.0364,-1.9772,-1.9785,-1.9852,-1.9898,-2.0007,-2.0066,-2.0145,-2.0237,-2.0285,-2.0314,-2.0362,-2.0354,-2.0379,-2.0382,-2.0382,-2.0347,-2.0347,-2.0347,-2.0347,-1.9742,-1.976,-1.9844,-1.9914,-1.9989,-2.0067,-2.0144,-2.0225,-2.0312,-2.0346,-2.0361,-2.0366,-2.0366,-2.0391,-2.0394,-2.0395,-2.0364,-2.0364,-2.0364,-1.9738,-1.9767,-1.9819,-1.9902,-1.9992,-2.0069,-2.0143,-2.0222,-2.0323,-2.0366,-2.0375,-2.0374,-2.0384,-2.0384,-2.0425,-2.0428,-2.0431,0,0]},{"header":{"parameterUnit":"m.s-1","parameterCategory":1,"la1":30.2992,"la2":30.254,"lo1":-89.0895,"lo2":-89.0443,"dy":0.0025,"dx":0.0025,"nx":19,"ny":19,"refTime":"2026-05-24T21:00:00:Z","depth":0,"parameterNumber":3,"parameterNumberName":"V-component_of_WINDS"},"data":[0,0,0,4.7619,4.7622,4.7771,4.7771,4.7973,4.7975,0,0,0,0,0,0,0,0,0,0,0,4.7586,4.7588,4.7618,4.7623,4.7771,4.7771,4.7973,4.7975,0,0,0,0,0,0,0,0,0,0,0,4.7585,4.7587,4.7589,4.7623,4.7771,4.7771,4.7972,4.7855,0,0,0,0,0,0,0,0,0,0,4.7708,4.769,4.7587,4.7589,4.7624,4.777,4.7771,4.7849,4.7862,4.7912,0,4.7962,0,4.7972,4.7989,4.799,0,0,0,4.7613,4.7679,4.7709,4.759,4.7626,4.777,4.7701,4.7856,4.7871,4.793,4.7965,4.7972,4.7975,4.7991,4.7992,4.8314,4.8316,0,0,4.7605,4.7618,4.7699,4.772,4.7701,4.7697,4.7706,4.7865,4.7903,4.7966,4.7976,4.7979,4.7992,4.7994,4.8312,4.8315,0,0,0,4.7588,4.7612,4.7638,4.7712,4.7738,4.7701,4.7712,4.7896,4.7904,4.7978,4.7981,4.7994,4.7996,4.831,4.8313,4.842,0,0,0,4.7582,4.7602,4.7635,4.7644,4.7735,4.782,4.774,4.7893,4.791,4.798,4.7994,4.7998,4.8308,4.8312,4.8412,4.8467,0,0,0,4.7572,4.7601,4.7626,4.7645,4.7709,4.7817,4.7833,4.7896,4.7913,4.799,4.7999,4.8307,4.8311,4.8406,4.8456,4.8554,0,0,0,4.7564,4.7719,4.7628,4.7802,4.7708,4.7883,4.7832,4.7961,4.8041,4.7995,4.8308,4.8313,4.8403,4.845,4.8547,4.8637,4.8677,0,0,4.7767,4.7744,4.7845,4.7768,4.7963,4.7859,4.8068,4.8129,4.8124,4.825,4.8258,4.8415,4.8456,4.8552,4.8897,4.8929,0,0,0,4.7914,4.7986,4.8035,4.8113,4.8164,4.821,4.8238,4.8259,4.8366,4.8192,4.8477,4.8501,4.8557,4.8599,4.8626,4.8672,4.8334,4.8333,4.8333,4.8217,4.8203,4.8368,4.8372,4.8448,4.8474,4.8532,4.8565,4.8529,4.8596,4.8633,4.8844,4.8895,4.8914,4.8963,4.8681,4.8682,4.8682,4.8683,4.851,4.8609,4.8558,4.8699,4.8682,4.88,4.883,4.88,4.8904,4.8816,4.8865,4.8767,4.895,4.8991,4.869,4.8689,4.8688,4.8687,4.8687,4.8705,4.875,4.8775,4.8884,4.8969,4.8966,4.9069,4.905,4.9032,4.9081,4.9116,4.9114,4.9107,4.9099,4.91,4.9101,4.9101,4.9102,4.9102,4.8897,4.8922,4.9012,4.9079,4.9124,4.9182,4.9208,4.9251,4.9294,4.9271,4.9272,4.9226,4.8971,4.8906,4.9114,4.9112,4.911,4.9109,4.9108,4.9196,4.9125,4.9265,4.9311,4.9385,4.9468,4.9443,4.9532,4.9565,4.9616,4.956,4.9376,4.935,4.9329,4.9274,4.9565,4.9565,4.9565,4.9565,4.9359,4.9345,4.9482,4.9556,4.9626,4.9617,4.9771,4.9791,4.9801,4.982,4.9775,4.9702,4.9681,4.9668,4.9639,4.9588,4.9952,4.9952,4.9953,4.954,4.9532,4.9668,4.9679,4.9735,4.9782,4.9925,5.0009,5.0005,4.9968,4.9833,4.9817,4.9699,4.9662,4.962,4.9576,4.9481,0,0]}]]